SKYNET 5B

Last updated on Thu Nov 21 2024 00:02:41 GMT+0000 (Coordinated Universal Time)

1 32294U 07056B 24325.29007799 .00000143 00000+0 00000+0 0 9993 2 32294 3.7843 80.3068 0003783 159.4052 309.6180 1.00274676 62445
UTC large
Height (km)
Speed (km/s)
/
Latitude / Longitude
Inclination (degrees)
Orbital Period (minutes)
Azimuth
Elevation
Range (km)
Doppler Factor

Next 0 passes for location: London (51.5072 / 0.1276)

Sorry there are no passes over London.